Regional Weather Roundup
Issued by NWS Upton, NY

Current Version | Previous Version | Graphics & Text | Print | Product List | Glossary Off
Versions: 1 2 3 4 5 6 7 8 9 10 11 12 13 14 15 16 17 18 19 20 21 22 23 24 25 26 27

000
ASUS41 KOKX 230705
RWROKX

REGIONAL WEATHER ROUNDUP
NATIONAL WEATHER SERVICE NEW YORK NY
300 AM EDT THU OCT 23 2014

NOTE: "FAIR" INDICATES FEW OR NO CLOUDS BELOW 12,000 FEET WITH NO
SIGNIFICANT WEATHER AND/OR OBSTRUCTIONS TO VISIBILITY.

NYZ071-072-176-178-NJZ106-104-230800-
NEW YORK CITY METRO AREA


CITY           SKY/WX    TMP DP  RH WIND       PRES   REMARKS
CENTRAL PARK   CLOUDY    53  46  77 N10G23    29.74F
LAGUARDIA APRT CLOUDY    53  47  79 N14       29.70F
KENNEDY INTL   CLOUDY    54  46  74 N26G35    29.69F
NEWARK/LIBERTY CLOUDY    53  47  79 N22G30    29.72S
BRNX BOT. GARD   N/A     52  45  76 NW7       29.73S
TETERBORO      CLOUDY    53  45  74 N13G23    29.71F
$$

NYZ177-179-078>081-230800-
LONG ISLAND NEW YORK

CITY           SKY/WX    TMP DP  RH WIND       PRES   REMARKS
FARMINGDALE    CLOUDY    53  47  79 NE22G33   29.66F
ISLIP          CLOUDY    52  47  83 N23G39    29.63F
SHIRLEY        LGT RAIN  52  47  83 N16G28    29.64F
WESTHAMPTON    CLOUDY    53  48  83 N16G26    29.64F
MONTAUK POINT    N/A     56  51  84 N22G40    29.60F
$$

NYZ052-065-067-230800-
HUDSON VALLEY

CITY           SKY/WX    TMP DP  RH WIND       PRES   REMARKS
WHITE PLAINS   DRIZZLE   51  46  83 N15G26    29.69F
NEWBURGH       CLOUDY    50  48  93 N14G25    29.79F
MONTGOMERY     LGT RAIN  50  46  86 N12G21    29.77F
POUGHKEEPSIE   LGT RAIN  50  46  86 N15G21    29.78F
ALBANY         RAIN      48  44  86 N9        29.90F FOG
$$

NJZ001-105-106-008-010-013-015-019>022-104-230800-
NEW JERSEY

CITY           SKY/WX    TMP DP  RH WIND       PRES   REMARKS
NEWARK/LIBERTY CLOUDY    53  47  79 N22G30    29.72S
TETERBORO      CLOUDY    53  45  74 N13G23    29.71F
CALDWELL       CLOUDY    51  32  48 NE8       29.74F
MORRISTOWN     CLOUDY    54  46  76 N15G22    29.74F
SOMERVILLE     CLOUDY    54  45  71 N10G21    29.73F
SUSSEX         HVY RAIN  52  46  80 VRB5      29.79S
ANDOVER          N/A     50  46  86 N8        29.78F
TRENTON        CLOUDY    52  46  80 N18       29.73F
MILLVILLE      LGT RAIN  51  48  89 NW13G25   29.74S
ATLANTIC CITY  LGT RAIN  50  49  96 NW16G26   29.69S
WRIGHTSTOWN    CLOUDY    51  48  92 NW16      29.69S
TOMS RIVER     CLOUDY    50  48  93 N8        29.68S
BELMAR         CLOUDY    52  45  76 N15       29.67S
$$

PAZ047>061-062-071-230800-
EASTERN PENNSYLVANIA

CITY           SKY/WX    TMP DP  RH WIND       PRES   REMARKS
PHILADELPHIA   CLOUDY    52  46  80 NW22G28   29.76S
ALLENTOWN      CLOUDY    52  43  71 N12       29.80S
SCRANTON       LGT RAIN  48  43  82 N15G22    29.87F
$$

CTZ002-004>006-009-010-012-RIZ004-006-007-MAZ004-011-015-230800-
SOUTHERN NEW ENGLAND
 IN CT

CITY           SKY/WX    TMP DP  RH WIND       PRES   REMARKS
BRADLEY INTL   CLOUDY    50  46  86 N17G28    29.74F
HARTFORD       CLOUDY    50  46  86 N15G29    29.74F
DANBURY        CLOUDY    51  43  74 N15G25    29.74F
WTRBRY/OXFORD  CLOUDY    48  41  76 NE21G33   29.70F
BRIDGEPORT     LGT RAIN  51  47  86 N28G37    29.66F
MERIDEN        CLOUDY    50  45  83 N15G30    29.71F
NEW HAVEN      LGT RAIN  51  47  86 N24G38    29.66F
CHESTER        PTSUNNY   48  46  93 N17G26    29.68F
GROTON         CLOUDY    51  48  89 N25G37    29.62F
WILLIMANTIC    CLOUDY    50  44  80 N20G30    29.71F

 IN RI

CITY           SKY/WX    TMP DP  RH WIND       PRES   REMARKS
PROVIDENCE     CLOUDY    51  48  89 N24G36    29.66F
BLOCK ISLAND   CLOUDY    54  48  82 N22G38    29.60R
WESTERLY       CLOUDY    53  49  86 N17G29    29.63F

 IN MA

CITY           SKY/WX    TMP DP  RH WIND       PRES   REMARKS
BOSTON         HVY RAIN  50  49  96 N24G44    29.72F FOG
WORCESTER      LGT RAIN  45  43  93 N22G39    29.72F
WESTFIELD      LGT RAIN  49  46  90 N18G31    29.76F
PROVINCETOWN   CLOUDY    57  55  94 E22G29    29.64F
NANTUCKET      MOCLDY    60  59  96 NE14      29.54S
$$

ANZ330-335-338-340-345-350-353-355-230800-
COASTAL MARINE OBSERVATIONS


STATION/POSITION TIME  SKY/WX   TEMP    WIND        PRES    VSBY  WAVE
                                AIR SEA DIR/SP/G                  HT/PER
                 (UTC)          (F)     (DEG/KT/KT) (MB)    (MI)  (FT/S)
NY HARB ENTRANCE NOT AVBL
4S FIRE IS       0700               63                N/A           6/ 6
20S FIRE ISLAND  0700            56 63   20/ 33/ 39 1000.8         10/ 7
23SW MTP         0700                                 N/A          10/ 7
HUDSON CANYON    0700            62 67   20/ 27/ 35  998.0
EXECUTION ROCKS  0700            55 63   30/ 19/ 29   N/A
WESTERN LI SOUND 0700            55      30/ 21/ 29   N/A           3/ 5
CENTRAL LI SOUND 0600            54 63  360/ 25/ 31   N/A           4/ 5
EASTERN LI SOUND 0600            54 63   20/ 23/ 31   N/A
ROBBINS REEF     0700            53     360/ 22/ 29 1004.5
$$


>>>>>>>>>>>>>>>>>>>>>>>>>>>> KEY <<<<<<<<<<<<<<<<<<<<<<<<<<<
>                                                          <
>     SKY/WX - SKY CONDITION/PRESENT WEATHER               <
>     TMP    - TEMPERATURE IN FAHRENHEIT                   <
>     DP     - DEWPOINT IN FAHRENHEIT                      <
>     RH     - RELATIVE HUMIDITY IN PERCENT                <
>     WIND   - DIRECTION AND SPEED IN MPH                  <
>     PRES   - MEAN SEA LEVEL PRESSURE IN INCHES OF HG     <
>     WCI    - WIND CHILL INDEX                            <
>     VSB    - VISIBILITY IN MILES                         <
>     HX     - HEAT INDEX                                  <
>     TC     - TEMPERATURE IN CELSIUS                      <
>     VRB    - VARIABLE WIND DIRECTION                     <
>                                                          <
>>>>>>>>>>>>>>>>>>>>>>>>>>>> KEY <<<<<<<<<<<<<<<<<<<<<<<<<<<





USA.gov is the U.S. government's official web portal to all federal, state and local government web resources and services.